EW0813 Weather Reports


time (UTC)temp
F
wind
direction
speed
knots
gust
knots
rain 1hr
in
rain 24hr
in
rain mn
in
humidity
%
barometer
mb
20260507033531 76 325 2.6 6.1 0.00 0.00 0.00 86 1808.3
20260507033211 76 273 2.6 7.0 0.00 0.00 0.00 85 122.3
20260507032627 76 256 4.3 8.7 0.00 0.00 0.00 84 122.3
20260507032116 76 253 6.1 8.7 0.00 0.00 0.00 84 122.3
20260507031724 76 234 2.6 4.3 0.00 0.00 0.00 84 122.3
20260507031149 76 254 1.7 3.5 0.00 0.00 0.00 83 122.3
20260507030531 76 219 0.0 2.6 0.00 0.00 0.00 83 122.3
20260507030213 76 223 0.0 2.6 0.00 0.00 0.00 82 122.3
20260507025530 76 252 1.7 3.5 0.00 0.00 0.00 82 122.3
20260507025028 76 285 0.9 3.5 0.00 0.00 0.00 81 122.3
20260507024655 77 278 1.7 5.2 0.00 0.00 0.00 81 122.3
20260507024025 77 302 2.6 7.0 0.00 0.00 0.00 81 122.3
20260507023538 77 281 2.6 7.0 0.00 0.00 0.00 81 122.3
20260507023209 77 266 5.2 6.1 0.00 0.00 0.00 80 206.4
20260507022548 77 269 3.5 5.2 0.00 0.00 0.00 80 206.4
20260507022135 77 274 2.6 5.2 0.00 0.00 0.00 80 206.4
20260507021635 77 257 0.9 2.6 0.00 0.00 0.00 79 206.4
20260507021027 78 229 1.7 4.3 0.00 0.00 0.00 79 206.4
20260507020527 78 313 0.9 4.3 0.00 0.00 0.00 79 206.4
20260507020143 78 288 1.7 3.5 0.00 0.00 0.00 79 702.1
20260507015532 78 312 2.6 3.5 0.00 0.00 0.00 79 702.1
20260507015035 78 301 2.6 3.5 0.00 0.00 0.00 79 702.1
20260507014640 78 309 1.7 3.5 0.00 0.00 0.00 79 702.1
20260507014051 78 24 1.7 7.0 0.00 0.00 0.00 79 702.1
20260507013537 78 32 3.5 7.0 0.00 0.00 0.00 78 702.1
20260507013248 78 61 2.6 4.3 0.00 0.00 0.00 78 702.1
20260507012533 78 44 1.7 4.3 0.00 0.00 0.00 78 702.1
20260507012026 78 26 2.6 4.3 0.00 0.00 0.00 78 702.1
20260507011636 78 16 1.7 3.5 0.00 0.00 0.00 77 702.1
20260507011022 78 38 1.7 4.3 0.00 0.00 0.00 78 702.1
20260507010531 78 54 1.7 5.2 0.00 0.00 0.00 78 702.1
20260507010133 78 87 1.7 5.2 0.00 0.00 0.00 78 702.1
20260507005536 78 57 2.6 7.0 0.00 0.00 0.00 78 702.1
20260507005031 78 34 3.5 9.6 0.00 0.00 0.00 78 702.1
20260507004728 78 19 2.6 9.6 0.00 0.00 0.00 78 702.1
20260507004109 78 83 5.2 8.7 0.00 0.00 0.00 79 702.1
20260507003524 78 97 3.5 7.8 0.00 0.00 0.00 79 702.1
20260507003220 78 41 3.5 7.0 0.00 0.00 0.00 79 1301.8
20260507002531 78 43 1.7 3.5 0.00 0.00 0.00 79 1301.8
20260507002036 78 17 1.7 5.2 0.00 0.00 0.00 79 1301.8
20260507001644 78 13 3.5 5.2 0.00 0.00 0.00 79 1064.0
20260507001127 78 43 3.5 5.2 0.00 0.00 0.00 79 1064.0
20260507000538 78 36 3.5 5.2 0.00 0.00 0.00 79 1064.0
20260507000347 78 51 2.6 4.3 0.00 0.00 0.00 78 815.9
20260506235700 79 68 0.9 1.7 0.00 0.00 0.00 78 815.9
20260506235021 79 68 0.0 2.6 0.00 0.00 0.00 77 815.9
20260506234837 79 68 0.9 2.6 0.00 0.00 0.00 77 1694.6
20260506234132 79 68 0.0 2.6 0.00 0.00 0.00 77 1694.6
20260506233524 79 40 0.0 2.6 0.00 0.00 0.00 77 1694.6
20260506233446 79 23 1.7 4.3 0.00 0.00 0.00 77 1694.6
20260506232543 79 63 2.6 4.3 0.00 0.00 0.00 77 1694.6
20260506232033 80 74 2.6 3.5 0.00 0.00 0.00 76 1694.6
20260506231653 80 74 1.7 3.5 0.00 0.00 0.00 75 1694.6
20260506231213 80 74 1.7 2.6 0.00 0.00 0.00 75 1694.6
20260506230712 80 74 0.9 4.3 0.00 0.00 0.00 75 1694.6
20260506230235 80 38 1.7 4.3 0.00 0.00 0.00 75 1694.6
20260506225553 80 70 2.6 5.2 0.00 0.00 0.00 75 1694.6
20260506225135 80 22 2.6 7.0 0.00 0.00 0.00 75 1694.6
20260506224720 80 22 4.3 7.0 0.00 0.00 0.00 75 206.4
20260506224056 80 342 2.6 5.2 0.00 0.00 0.00 75 206.4
20260506223531 80 360 3.5 7.0 0.00 0.00 0.00 75 206.4
20260506223237 80 355 3.5 7.0 0.00 0.00 0.00 75 1808.3
20260506222710 80 360 3.5 7.0 0.00 0.00 0.00 74 1808.3
20260506222032 80 24 2.6 8.7 0.00 0.00 0.00 74 1808.3
20260506221809 80 12 3.5 8.7 0.00 0.00 0.00 73 1808.3
20260506221032 80 20 5.2 8.7 0.00 0.00 0.00 72 1808.3
20260506220151 80 34 5.2 12.2 0.00 0.00 0.00 71 950.3
20260506215546 81 42 7.0 13.0 0.00 0.00 0.00 70 950.3
20260506215025 81 49 8.7 13.0 0.00 0.00 0.00 72 950.3
20260506214715 81 32 5.2 10.4 0.00 0.00 0.00 81 950.3
20260506214028 81 19 3.5 6.1 0.00 0.00 0.00 84 950.3
20260506213523 81 31 2.6 4.3 0.00 0.00 0.00 84 950.3
20260506213225 81 17 1.7 5.2 0.00 0.00 0.00 85 867.6
20260506212523 81 313 1.7 5.2 0.00 0.00 0.00 85 867.6
20260506212209 80 5 2.6 5.2 0.00 0.00 0.00 85 867.6
20260506211705 80 349 2.6 6.1 0.00 0.00 0.00 85 2056.3
20260506211113 80 14 3.5 8.7 0.00 0.00 0.00 85 2056.3
20260506210703 80 73 4.3 11.3 0.00 0.00 0.00 86 2056.3
20260506210239 80 40 6.1 10.4 0.00 0.00 0.00 86 1632.6
20260506205553 80 55 2.6 4.3 0.00 0.00 0.00 85 1632.6
20260506205111 80 155 0.0 1.7 0.00 0.00 0.00 86 1632.6
20260506204718 80 155 0.9 4.3 0.00 0.00 0.00 86 289.3
20260506204110 80 150 1.7 5.2 0.00 0.00 0.00 85 289.3
20260506203627 80 143 2.6 4.3 0.00 0.00 0.00 85 289.3
20260506203315 80 198 2.6 4.3 0.00 0.00 0.00 85 289.3
20260506202634 80 229 1.7 4.3 0.00 0.00 0.00 85 289.3
20260506202119 80 250 2.6 7.0 0.00 0.00 0.00 85 289.3
20260506201705 80 263 2.6 7.8 0.00 0.00 0.00 85 289.3
20260506201153 81 263 4.3 7.8 0.00 0.00 0.00 84 289.3
20260506200612 81 256 3.5 7.8 0.00 0.00 0.00 84 289.3
20260506200226 81 247 2.6 7.8 0.00 0.00 0.00 83 289.3
20260506195605 81 225 3.5 7.0 0.00 0.00 0.00 83 289.3
20260506195028 81 246 3.5 7.0 0.00 0.00 0.00 82 289.3
20260506194857 81 230 3.5 6.1 0.00 0.00 0.00 82 299.6
20260506194149 82 247 3.5 7.0 0.00 0.00 0.00 81 299.6
20260506193614 82 246 3.5 8.7 0.00 0.00 0.00 81 299.6
20260506193221 82 255 4.3 8.7 0.00 0.00 0.00 80 299.6
20260506192616 82 263 4.3 8.7 0.00 0.00 0.00 79 299.6
20260506192043 82 241 5.2 9.6 0.00 0.00 0.00 79 299.6
20260506191740 83 232 6.1 9.6 0.00 0.00 0.00 78 299.6
20260506191210 83 250 4.3 9.6 0.00 0.00 0.00 77 299.6
20260506190708 83 242 6.1 10.4 0.00 0.00 0.00 77 299.6
20260506190225 83 257 7.0 10.4 0.00 0.00 0.00 76 237.5
20260506185647 84 239 5.2 8.7 0.00 0.00 0.00 76 237.5
20260506185036 84 248 6.1 10.4 0.00 0.00 0.00 75 237.5
20260506184911 84 267 5.2 12.2 0.00 0.00 0.00 74 153.4
20260506184048 84 265 8.7 12.2 0.00 0.00 0.00 73 153.4
20260506183617 85 248 7.8 13.0 0.00 0.00 0.00 72 153.4
20260506183236 85 271 9.6 14.8 0.00 0.00 0.00 72 153.4
20260506182641 86 267 7.8 12.2 0.00 0.00 0.00 70 153.4
20260506182024 86 256 7.8 13.0 0.00 0.00 0.00 70 153.4
20260506181816 86 261 7.8 13.0 0.00 0.00 0.00 69 153.4
20260506181147 87 247 7.8 13.9 0.00 0.00 0.00 69 153.4
20260506180516 87 236 7.8 13.9 0.00 0.00 0.00 68 153.4
20260506180512 87 270 10.4 13.9 0.00 0.00 0.00 67 215.6
20260506175610 88 295 11.3 13.9 0.00 0.00 0.00 65 215.6
20260506175047 88 249 8.7 12.2 0.00 0.00 0.00 65 215.6
20260506174805 89 213 7.8 13.0 0.00 0.00 0.00 64 215.6
20260506174052 89 271 8.7 13.9 0.00 0.00 0.00 63 215.6
20260506173521 89 277 9.6 14.8 0.00 0.00 0.00 63 215.6
20260506173424 89 264 11.3 14.8 0.00 0.00 0.00 62 215.6
20260506172644 89 253 11.3 14.8 0.00 0.00 0.00 61 215.6
20260506172013 90 263 8.7 15.6 0.00 0.00 0.00 62 215.6
20260506171137 90 273 8.7 20.0 0.00 0.00 0.00 60 474.5
20260506170524 90 275 10.4 20.0 0.00 0.00 0.00 60 474.5
20260506170359 90 261 11.3 16.5 0.00 0.00 0.00 61 227.1
20260506165551 90 277 11.3 15.6 0.00 0.00 0.00 62 227.1
20260506165126 90 274 7.8 15.6 0.00 0.00 0.00 64 227.1
20260506164651 90 267 10.4 14.8 0.00 0.00 0.00 63 227.1
20260506164144 90 264 8.7 16.5 0.00 0.00 0.00 64 227.1
20260506163519 90 257 10.4 16.5 0.00 0.00 0.00 63 227.1
20260506163310 90 246 9.6 15.6 0.00 0.00 0.00 63 227.1
20260506162714 90 259 8.7 14.8 0.00 0.00 0.00 63 227.1
20260506162149 90 279 10.4 16.5 0.00 0.00 0.00 62 227.1
20260506161740 90 251 10.4 16.5 0.00 0.00 0.00 61 227.1
20260506161213 91 265 11.3 15.6 0.00 0.00 0.00 62 227.1
20260506160717 91 269 11.3 14.8 0.00 0.00 0.00 62 227.1
20260506160317 91 279 8.7 16.5 0.00 0.00 0.00 62 288.1
20260506155549 91 275 10.4 16.5 0.00 0.00 0.00 60 288.1
20260506155057 92 225 9.6 15.6 0.00 0.00 0.00 61 288.1
20260506154910 92 240 9.6 13.0 0.00 0.00 0.00 61 288.1
20260506154111 92 250 8.7 13.9 0.00 0.00 0.00 63 288.1
20260506153634 92 266 8.7 16.5 0.00 0.00 0.00 63 288.1
20260506153334 92 269 8.7 16.5 0.00 0.00 0.00 64 288.1
20260506152542 92 219 8.7 14.8 0.00 0.00 0.00 63 288.1
20260506152159 92 219 10.4 14.8 0.00 0.00 0.00 63 288.1
20260506151813 93 245 7.8 13.0 0.00 0.00 0.00 62 288.1
20260506151128 93 228 8.7 13.9 0.00 0.00 0.00 62 288.1
20260506150547 93 254 8.7 13.9 0.00 0.00 0.00 62 288.1
20260506145549 93 256 7.8 15.6 0.00 0.00 0.00 64 1725.6
20260506145057 93 271 9.6 15.6 0.00 0.00 0.00 64 1725.6
20260506144829 93 263 8.7 15.6 0.00 0.00 0.00 64 1725.6
20260506144058 93 253 9.6 17.4 0.00 0.00 0.00 63 1725.6
20260506143613 94 245 7.0 13.9 0.00 0.00 0.00 64 1725.6
20260506143249 94 265 7.8 13.9 0.00 0.00 0.00 64 1229.5
20260506142634 94 261 7.8 13.9 0.00 0.00 0.00 64 1229.5
20260506142202 94 304 8.7 16.5 0.00 0.00 0.00 64 1229.5
20260506141800 94 269 10.4 16.5 0.00 0.00 0.00 63 546.9
20260506141027 95 261 9.6 16.5 0.00 0.00 0.00 62 546.9
20260506140706 95 295 8.7 13.9 0.00 0.00 0.00 60 546.9
20260506140219 96 260 6.1 13.9 0.00 0.00 0.00 59 546.9
20260506135611 98 263 8.7 13.9 0.00 0.00 0.00 58 546.9
20260506135213 98 287 2.6 9.6 0.00 0.00 0.00 54 546.9
20260506134749 97 152 0.9 9.6 0.00 0.00 0.00 49 546.9
20260506134016 97 206 4.3 8.7 0.00 0.00 0.00 49 546.9
20260506133558 97 250 6.1 8.7 0.00 0.00 0.00 49 546.9
20260506133233 97 281 4.3 9.6 0.00 0.00 0.00 49 546.9
20260506132659 97 314 7.0 10.4 0.00 0.00 0.00 50 546.9
20260506132059 97 296 7.8 11.3 0.00 0.00 0.00 49 546.9
20260506131828 97 302 7.0 11.3 0.00 0.00 0.00 49 546.9
20260506131051 97 63 2.6 6.1 0.00 0.00 0.00 50 546.9
20260506130549 95 134 2.6 8.7 0.00 0.00 0.00 51 546.9
20260506130128 95 248 3.5 12.2 0.00 0.00 0.00 52 546.9
20260506125611 95 297 7.0 13.0 0.00 0.00 0.00 53 546.9
20260506125150 94 275 9.6 13.0 0.00 0.00 0.00 53 546.9
20260506124843 94 303 1.7 9.6 0.00 0.00 0.00 53 215.6
20260506124157 95 65 4.3 9.6 0.00 0.00 0.00 52 215.6
20260506123327 95 319 7.0 13.0 0.00 0.00 0.00 52 1146.8
20260506122642 94 321 4.3 13.0 0.00 0.00 0.00 53 1146.8
20260506122042 94 311 2.6 11.3 0.00 0.00 0.00 53 1146.8
20260506121748 94 298 7.0 11.3 0.00 0.00 0.00 54 402.0
20260506121115 93 323 7.0 12.2 0.00 0.00 0.00 53 402.0
20260506120624 93 296 7.0 12.2 0.00 0.00 0.00 56 402.0
20260506120211 92 320 3.5 10.4 0.00 0.00 0.00 57 971.0
20260506115701 92 13 2.6 11.3 0.00 0.00 0.00 57 971.0
20260506115143 93 319 5.2 10.4 0.00 0.00 0.00 56 971.0
20260506114719 92 321 5.2 10.4 0.00 0.00 0.00 55 2128.6
20260506114121 92 301 5.2 13.0 0.00 0.00 0.00 56 2128.6
20260506113643 92 271 1.7 13.0 0.00 0.00 0.00 58 2128.6
20260506113204 92 304 3.5 9.6 0.00 0.00 0.00 59 2128.6
20260506112548 92 304 2.6 11.3 0.00 0.00 0.00 59 2128.6
20260506112033 91 281 7.0 11.3 0.00 0.00 0.00 59 2128.6
20260506111828 91 318 4.3 11.3 0.00 0.00 0.00 60 2128.6
20260506111050 91 54 3.5 10.4 0.00 0.00 0.00 61 2128.6
20260506110604 91 329 6.1 10.4 0.00 0.00 0.00 61 2128.6
20260506110315 91 355 4.3 9.6 0.00 0.00 0.00 61 971.0
20260506105610 90 325 5.2 9.6 0.00 0.00 0.00 62 971.0
20260506105038 90 41 4.3 9.6 0.00 0.00 0.00 62 971.0
20260506104853 90 324 6.1 9.6 0.00 0.00 0.00 63 971.0
20260506104142 89 309 3.5 9.6 0.00 0.00 0.00 63 971.0
20260506103641 89 306 5.2 9.6 0.00 0.00 0.00 63 971.0
20260506103247 89 307 3.5 8.7 0.00 0.00 0.00 64 971.0
20260506102639 88 296 3.5 9.6 0.00 0.00 0.00 65 971.0
20260506102112 88 32 5.2 9.6 0.00 0.00 0.00 66 971.0
20260506101722 87 273 6.1 9.6 0.00 0.00 0.00 69 1870.3
20260506101136 87 275 4.3 7.8 0.00 0.00 0.00 70 1870.3
20260506100527 87 22 4.3 7.0 0.00 0.00 0.00 70 1870.3
20260506100352 87 22 3.5 5.2 0.00 0.00 0.00 70 1870.3
20260506095608 87 308 2.6 9.6 0.00 0.00 0.00 71 1870.3
20260506095023 86 26 3.5 9.6 0.00 0.00 0.00 72 1870.3
20260506094843 86 25 4.3 7.8 0.00 0.00 0.00 71 1467.2
20260506094127 86 334 3.5 7.8 0.00 0.00 0.00 73 1467.2
20260506093518 85 340 2.6 7.0 0.00 0.00 0.00 74 1467.2
20260506093322 85 334 4.3 7.8 0.00 0.00 0.00 74 1467.2
20260506092556 85 331 5.2 7.8 0.00 0.00 0.00 75 1467.2
20260506092031 85 360 2.6 7.0 0.00 0.00 0.00 76 1467.2
20260506091813 85 40 3.5 7.0 0.00 0.00 0.00 77 1467.2
20260506091058 85 20 1.7 7.0 0.00 0.00 0.00 77 1467.2
20260506090529 85 17 1.7 4.3 0.00 0.00 0.00 79 1467.2
20260506090219 84 11 0.9 4.3 0.00 0.00 0.00 80 1467.2
20260506085651 84 334 0.9 4.3 0.00 0.00 0.00 80 1467.2
20260506085054 84 325 1.7 4.3 0.00 0.00 0.00 80 1467.2
20260506084724 84 33 1.7 4.3 0.00 0.00 0.00 80 298.4
20260506084118 84 331 1.7 3.5 0.00 0.00 0.00 80 298.4
20260506083547 85 270 0.9 2.6 0.00 0.00 0.00 81 298.4
20260506083442 85 260 0.0 1.7 0.00 0.00 0.00 82 70.4
20260506082606 84 209 0.0 0.9 0.00 0.00 0.00 85 70.4
20260506082019 83 213 0.0 1.7 0.00 0.00 0.00 87 70.4
20260506081758 82 211 0.9 1.7 0.00 0.00 0.00 87 237.5
20260506081104 81 220 0.0 1.7 0.00 0.00 0.00 89 237.5
20260506080610 81 57 0.0 1.7 0.00 0.00 0.00 90 237.5
20260506080248 80 137 0.0 1.7 0.00 0.00 0.00 91 237.5
20260506073343 78 92 0.0 0.9 0.00 0.00 0.00 93 144.2
20260506072551 78 153 0.0 0.0 0.00 0.00 0.00 93 144.2
20260506072037 78 157 0.0 0.0 0.00 0.00 0.00 93 144.2
20260506071743 77 224 0.0 0.0 0.00 0.00 0.00 93 144.2
20260506071031 77 224 0.0 0.9 0.00 0.00 0.00 93 144.2
20260506070537 77 224 0.0 1.7 0.00 0.00 0.00 93 144.2
20260506070303 77 224 0.0 1.7 0.00 0.00 0.00 93 144.2
20260506062022 77 92 1.7 2.6 0.00 0.03 0.00 93 144.2
20260506061639 77 92 0.9 1.7 0.00 0.03 0.00 93 144.2
20260506061147 77 92 0.0 1.7 0.00 0.03 0.00 93 144.2
20260506060527 77 92 0.0 1.7 0.00 0.03 0.00 93 144.2
20260506060354 77 92 0.9 2.6 0.00 0.03 0.00 93 1643.0
20260506051044 77 119 0.0 0.9 0.00 0.09 0.00 94 2139.0
20260506050533 77 119 0.0 0.9 0.00 0.09 0.00 94 2139.0
20260506050130 77 119 0.0 0.9 0.00 0.09 0.00 94 2139.0
20260506045023 77 119 0.9 1.7 0.00 0.12 0.00 93 2139.0
20260506044626 77 119 0.9 1.7 0.00 0.12 0.00 93 2139.0
20260506044034 77 119 0.0 1.7 0.00 0.12 0.00 93 2139.0
20260506043542 77 119 0.0 1.7 0.00 0.12 0.00 93 2139.0
20260506043123 77 119 0.0 1.7 0.00 0.12 0.00 93 2139.0
20260506042537 77 119 0.0 1.7 0.00 0.12 0.00 93 2139.0
20260506042024 77 119 0.0 1.7 0.00 0.12 0.00 93 2139.0
20260506041623 77 119 0.9 1.7 0.00 0.12 0.00 93 898.6
20260506041017 77 119 0.0 0.9 0.00 0.12 0.00 93 898.6
20260506040533 77 119 0.0 1.7 0.00 0.12 0.00 93 898.6
20260506040327 77 119 0.0 2.6 0.00 0.12 0.00 93 733.1
20260506035533 77 119 1.7 3.5 0.00 0.12 0.00 93 733.1
20260506035043 77 128 2.6 3.5 0.00 0.12 0.00 93 733.1
20260506034712 77 136 1.7 2.6 0.00 0.12 0.00 93 733.1
20260506034024 77 64 0.0 0.0 0.00 0.12 0.00 93 733.1